Wind_Speed
79 88 100 106 107 107 111 112 107 107 116 127 131 121 105 104 100 99 101 106 105 103 101 99 96 96 97 90 86 82 79 82 80 78 80 79 78 77 77 76 77 70 65 59
81 82 86 94 104 109 112 113 110 110 113 122 123 124 112 114 111 111 110 108 104 102 101 94 95 95 95 88 81 77 82 84 85 81 78 78 78 77 77 76 70 62 61 63
77 82 87 91 92 98 108 113 114 117 120 123 118 119 115 112 112 114 114 115 111 104 100 99 96 94 93 85 77 75 83 86 82 81 80 82 81 79 75 65 64 62 64 64
71 77 82 87 92 100 101 104 108 116 119 121 122 123 117 108 107 110 114 113 115 111 109 104 102 96 91 87 91 88 88 81 81 81 77 77 75 71 66 58 59 63 65 65
69 74 81 82 86 96 101 104 108 109 112 116 120 124 111 113 110 111 109 111 115 116 113 110 105 97 92 89 81 81 77 72 71 71 68 68 66 63 55 61 61 66 67 69
70 75 81 81 86 93 96 100 106 109 113 112 106 116 110 114 111 113 113 114 113 113 118 115 109 106 96 90 85 78 69 68 69 69 69 71 69 66 61 66 70 69 69 73
74 78 81 82 86 90 94 94 99 104 107 105 107 118 105 99 108 112 114 116 114 110 110 107 106 108 107 103 100 92 83 78 73 72 72 74 72 72 64 67 67 69 75 74
73 74 78 80 83 80 83 92 94 96 100 97 103 107 96 95 96 100 103 108 111 111 107 104 100 100 101 99 98 94 93 87 86 78 74 74 69 70 67 69 73 75 72 67
66 65 67 68 70 71 75 81 85 86 83 89 92 91 89 88 89 94 99 103 103 102 103 104 104 100 94 89 92 97 94 87 83 77 72 67 70 69 73 74 71 67 64 62
56 51 53 55 55 60 61 71 73 74 70 77 80 79 78 80 82 84 90 94 99 97 86 89 99 97 88 88 85 85 81 81 79 77 74 71 72 72 64 62 62 61 59 57
44 42 42 44 46 47 52 56 61 65 64 62 63 62 71 72 70 72 76 84 93 87 84 82 86 89 90 86 79 77 73 74 72 70 70 71 68 62 56 56 56 56 52 47
39 35 35 35 38 40 42 46 51 50 56 50 49 54 57 58 57 64 75 71 79 77 78 78 72 73 83 85 76 70 65 65 60 59 58 58 56 54 53 53 51 47 44 38
32 29 29 29 33 34 36 36 38 41 44 42 40 42 49 55 60 65 64 76 66 48 65 73 68 65 63 67 71 67 60 55 52 50 49 49 49 49 49 48 44 42 38 33
24 24 26 25 27 24 25 20 28 33 36 37 36 38 41 49 55 49 58 56 53 60 79 70 62 56 51 51 52 54 53 51 46 44 45 45 47 48 47 42 39 37 34 30
18 18 19 19 19 17 17 16 24 26 31 32 36 43 43 49 48 51 57 45 58 62 64 53 47 44 45 38 38 37 36 37 37 39 41 42 43 40 37 35 34 33 29 32
18 15 13 12 13 10 14 18 24 27 29 29 35 44 50 52 51 36 37 49 59 59 50 48 44 40 35 34 32 33 32 33 35 37 36 35 33 32 31 31 27 25 28 32
17 14 12 10 9 5 9 18 27 27 31 32 40 49 49 44 29 41 50 52 51 51 49 47 44 35 37 34 34 31 33 34 34 32 29 28 25 26 29 24 23 25 29 28
17 14 9 7 7 6 8 18 22 26 28 29 28 26 25 23 31 47 50 49 47 45 47 47 42 36 35 33 32 34 35 31 29 27 24 22 24 24 19 22 24 28 26 19
19 18 12 7 5 7 11 18 21 24 26 25 22 25 32 37 44 47 50 48 47 49 49 49 42 38 36 36 37 36 30 26 26 22 22 21 16 14 18 22 24 24 17 7
19 18 14 9 5 6 11 19 23 27 25 28 36 43 47 47 49 54 54 55 61 55 52 48 39 35 32 37 35 31 26 26 23 21 21 15 14 17 20 22 22 18 10 8
20 18 13 10 7 4 12 19 26 28 28 30 43 48 47 46 48 52 57 61 60 63 50 30 32 32 37 34 30 27 27 24 20 17 15 12 14 17 20 19 16 10 7 8
17 17 14 10 7 4 8 16 24 25 32 42 47 51 54 55 59 66 67 66 67 60 41 38 32 34 33 31 27 28 22 17 14 13 11 10 13 17 16 11 7 4 4 4
15 15 12 8 6 3 8 15 22 28 38 44 57 64 65 68 73 72 72 74 67 53 40 41 40 40 32 28 28 23 18 15 12 13 9 10 13 13 7 3 7 7 4 5
12 11 9 4 3 4 11 19 27 38 44 54 66 73 75 75 76 79 75 68 54 49 44 40 37 34 28 28 25 20 17 14 14 12 10 10 11 5 4 10 12 6 3 5
10 8 6 3 2 7 17 29 42 50 55 58 67 78 80 81 80 71 64 58 52 41 31 22 26 27 28 27 23 21 12 12 12 11 9 10 8 3 12 15 13 13 14 17
6 7 4 5 9 15 30 45 53 59 67 71 77 85 89 81 76 69 63 55 51 39 24 13 27 24 25 25 24 16 14 13 11 8 8 10 7 4 11 18 22 21 21 22
Wind_Direction
249 248 246 245 244 245 244 245 243 243 240 243 243 244 237 241 242 246 250 253 253 253 257 255 252 252 253 256 261 262 266 271 269 269 275 281 284 285 288 294 297 298 301 301
251 250 250 249 247 246 246 246 245 243 243 245 243 244 240 241 241 243 246 247 252 254 256 252 250 252 255 257 257 256 262 267 269 272 275 280 281 283 288 293 293 297 304 302
252 253 252 251 250 249 248 247 245 245 244 245 246 245 244 242 241 243 245 246 247 246 251 254 255 254 251 250 250 255 262 264 270 274 277 279 281 285 286 289 291 296 304 302
258 255 253 252 251 250 248 249 247 247 246 246 246 246 246 244 243 243 243 245 246 248 248 250 254 255 255 254 253 254 257 264 269 274 277 276 280 283 286 292 292 295 305 303
264 260 257 256 254 252 250 250 249 247 246 246 248 249 243 245 244 243 244 245 244 245 246 246 248 253 255 256 257 257 261 261 270 268 273 274 279 285 289 290 294 298 303 302
267 265 261 258 255 254 253 251 250 249 249 248 247 250 245 245 242 242 243 242 242 243 245 245 245 247 249 252 256 258 260 263 266 269 276 280 284 285 291 292 294 299 298 300
268 266 264 261 258 255 255 254 252 252 251 251 248 248 247 243 245 243 241 242 243 242 244 246 246 247 249 254 256 256 258 263 266 270 274 279 282 284 292 291 291 292 296 296
269 267 267 264 263 259 258 255 253 253 253 253 249 252 250 246 246 247 246 244 243 243 243 245 247 246 247 249 252 255 259 263 264 268 273 275 278 285 286 284 289 292 291 292
274 274 268 264 261 260 254 255 256 253 251 249 250 252 250 247 241 241 242 242 243 242 241 241 244 244 245 248 251 253 257 258 259 264 270 273 278 282 280 283 286 287 288 290
283 277 270 266 260 255 251 250 253 253 249 248 248 247 249 247 242 237 237 239 241 241 239 240 242 244 246 247 248 251 253 254 259 262 265 268 273 279 279 282 282 284 287 290
288 280 274 268 263 259 251 249 249 251 252 246 245 244 243 241 240 239 238 234 235 237 236 235 238 240 242 244 245 248 251 253 258 262 265 270 275 276 279 278 280 284 288 288
288 282 277 265 262 259 256 251 250 246 248 247 243 238 240 236 233 231 231 231 231 230 231 233 235 236 238 242 246 249 253 253 259 262 263 267 271 273 273 274 279 283 284 279
291 285 275 266 260 255 254 250 248 245 245 242 236 233 230 231 227 223 228 229 227 218 228 228 228 233 237 239 241 245 250 252 257 258 264 266 267 266 268 272 275 275 272 278
296 284 275 271 266 264 254 250 247 240 236 233 224 220 220 224 226 220 224 225 211 204 210 218 219 226 232 232 236 242 248 250 252 255 255 254 256 258 264 269 268 267 270 280
315 301 283 272 266 256 245 223 231 220 224 226 215 207 205 216 218 213 214 209 207 201 211 207 212 217 225 227 233 233 232 237 242 245 243 245 252 258 261 260 267 272 273 288
334 322 311 296 267 244 211 193 209 206 204 207 203 206 201 209 217 209 190 199 208 200 197 192 195 210 212 210 215 217 221 224 230 232 239 246 251 250 255 262 265 266 284 289
346 348 332 316 294 249 183 190 213 219 201 195 199 202 206 214 202 182 186 196 195 191 183 181 187 190 197 198 206 212 213 217 223 232 238 240 242 255 255 257 265 279 286 291
352 348 337 306 282 251 188 201 212 205 212 202 202 202 194 177 176 184 182 184 181 175 172 170 179 181 190 195 202 207 212 215 223 227 225 233 243 246 255 263 275 281 286 293
355 349 342 325 264 229 185 184 209 210 211 183 173 161 155 164 174 177 174 165 163 162 163 164 168 179 187 189 201 205 209 215 216 210 224 233 230 256 266 275 276 281 285 261
357 354 355 327 294 216 182 170 205 200 200 181 159 158 163 166 171 168 164 157 154 154 152 157 166 183 189 196 203 206 212 206 204 211 218 225 251 258 273 275 278 278 257 214
354 358 354 336 313 213 188 176 187 196 180 166 161 163 157 157 154 153 150 148 144 143 143 154 171 181 196 198 203 207 203 198 208 211 208 241 260 273 273 277 273 255 233 219
358 353 347 333 305 269 189 174 180 184 168 165 162 153 145 148 146 143 145 142 142 138 140 162 165 191 196 199 199 196 190 198 188 202 229 253 272 271 281 267 236 185 208 224
350 349 343 329 298 218 172 164 168 160 163 161 159 149 147 144 144 141 140 140 142 135 146 161 184 198 204 197 196 186 189 180 204 208 235 272 272 288 268 167 119 117 146 212
344 352 347 339 284 176 158 154 151 154 155 161 153 145 146 142 140 138 137 137 133 142 155 172 192 200 197 193 190 183 174 191 201 221 260 275 289 289 133 103 130 126 205 227
350 358 16 18 120 150 147 148 151 151 153 154 151 141 138 137 134 133 129 129 136 151 160 175 191 205 192 188 189 172 195 198 208 235 263 284 301 276 150 152 163 188 199 196
355 24 48 95 126 141 149 152 154 148 146 149 140 135 133 130 127 128 129 130 135 139 155 191 210 209 200 189 189 171 194 199 209 247 270 288 293 266 198 182 185 201 208 205
Height
10584 10587 10590 10592 10598 10609 10609 10616 10635 10647 10648 10625 10630 10652 10702 10696 10699 10708 10706 10711 10723 10735 10742 10749 10758 10763 10768 10782 10793 10796 10792 10792 10795 10800 10805 10802 10797 10796 10795 10794 10788 10788 10784 10776
10565 10567 10567 10570 10577 10583 10585 10592 10607 10615 10614 10592 10616 10627 10673 10677 10687 10685 10688 10695 10707 10715 10722 10732 10739 10746 10755 10770 10782 10785 10778 10778 10780 10789 10789 10788 10787 10786 10787 10787 10780 10777 10773 10766
10544 10544 10545 10548 10554 10555 10558 10565 10577 10579 10579 10575 10601 10606 10630 10656 10663 10666 10669 10678 10686 10699 10705 10712 10721 10730 10742 10755 10767 10775 10764 10768 10770 10773 10777 10774 10774 10776 10777 10778 10771 10766 10762 10756
10526 10521 10522 10524 10531 10524 10530 10533 10543 10545 10553 10559 10565 10575 10601 10632 10641 10644 10649 10657 10666 10677 10688 10694 10701 10714 10725 10741 10747 10753 10754 10764 10762 10759 10763 10762 10766 10764 10764 10767 10761 10755 10752 10745
10503 10501 10497 10502 10504 10495 10506 10509 10513 10519 10527 10532 10542 10544 10600 10598 10617 10621 10631 10637 10645 10653 10663 10675 10687 10698 10705 10717 10731 10740 10748 10751 10749 10746 10750 10752 10758 10753 10755 10753 10750 10745 10740 10733
10482 10474 10469 10477 10477 10474 10477 10482 10483 10490 10495 10503 10534 10515 10561 10570 10586 10593 10599 10604 10616 10630 10638 10654 10671 10680 10692 10702 10712 10723 10731 10734 10736 10735 10738 10741 10744 10744 10747 10740 10738 10733 10728 10723
10457 10451 10442 10446 10445 10448 10450 10460 10458 10457 10464 10487 10500 10479 10518 10550 10547 10562 10569 10578 10591 10611 10619 10634 10652 10664 10678 10685 10696 10705 10714 10719 10721 10724 10728 10730 10733 10731 10736 10728 10727 10722 10717 10711
10431 10428 10420 10419 10415 10427 10429 10419 10426 10435 10442 10460 10460 10463 10502 10523 10533 10537 10551 10562 10572 10587 10606 10618 10634 10643 10657 10672 10681 10687 10695 10705 10711 10713 10716 10718 10722 10721 10721 10718 10715 10711 10705 10700
10404 10402 10395 10394 10395 10398 10398 10401 10399 10405 10422 10424 10435 10450 10466 10487 10507 10517 10525 10530 10540 10569 10586 10602 10607 10620 10644 10659 10665 10673 10684 10691 10698 10702 10705 10707 10707 10711 10709 10708 10703 10697 10693 10689
10381 10379 10374 10369 10372 10372 10380 10376 10379 10382 10397 10403 10416 10429 10444 10459 10470 10484 10495 10512 10522 10537 10568 10585 10594 10611 10630 10637 10651 10658 10669 10677 10685 10691 10695 10696 10696 10699 10696 10694 10690 10685 10682 10677
10362 10357 10356 10353 10353 10356 10358 10362 10364 10368 10374 10386 10396 10416 10417 10429 10449 10469 10481 10485 10489 10525 10548 10560 10574 10600 10610 10618 10633 10645 10658 10667 10674 10680 10683 10683 10686 10684 10683 10681 10678 10674 10671 10669
10343 10343 10340 10340 10340 10342 10345 10349 10351 10357 10358 10371 10387 10397 10403 10416 10433 10442 10444 10471 10479 10503 10532 10550 10568 10581 10590 10608 10627 10637 10647 10655 10664 10668 10670 10672 10673 10670 10669 10669 10667 10664 10662 10660
10332 10331 10328 10328 10328 10331 10334 10338 10341 10344 10350 10361 10374 10382 10387 10398 10406 10418 10440 10445 10476 10517 10524 10536 10555 10569 10585 10603 10614 10626 10636 10646 10651 10655 10659 10659 10659 10657 10657 10658 10658 10657 10655 10653
10325 10322 10319 10319 10320 10326 10328 10332 10331 10335 10340 10351 10364 10367 10375 10379 10394 10424 10431 10446 10471 10494 10500 10520 10545 10567 10584 10592 10606 10620 10627 10633 10639 10643 10646 10646 10647 10647 10648 10649 10648 10648 10646 10645
10319 10316 10313 10313 10315 10318 10319 10322 10319 10326 10333 10345 10358 10361 10368 10372 10389 10404 10417 10444 10460 10472 10492 10523 10547 10569 10578 10592 10603 10613 10615 10621 10627 10631 10632 10635 10637 10640 10641 10640 10640 10640 10639 10638
10316 10312 10309 10309 10310 10312 10314 10316 10312 10318 10325 10337 10349 10356 10362 10370 10382 10411 10425 10439 10456 10473 10500 10526 10547 10561 10581 10588 10598 10603 10608 10613 10616 10620 10624 10627 10631 10632 10633 10634 10635 10633 10633 10630
10315 10311 10308 10307 10306 10309 10315 10312 10309 10314 10318 10328 10338 10341 10353 10368 10389 10405 10416 10436 10457 10479 10500 10522 10542 10560 10574 10583 10590 10595 10598 10604 10609 10614 10618 10621 10624 10626 10627 10629 10628 10627 10626 10624
10313 10310 10308 10307 10306 10307 10312 10310 10310 10314 10319 10322 10336 10354 10365 10380 10396 10404 10421 10442 10464 10485 10502 10522 10536 10551 10563 10575 10584 10587 10592 10598 10604 10609 10613 10616 10619 10621 10622 10622 10622 10621 10620 10617
10313 10310 10308 10305 10304 10305 10310 10311 10311 10316 10319 10331 10342 10355 10365 10374 10387 10407 10425 10445 10470 10488 10506 10521 10535 10548 10558 10568 10577 10582 10588 10595 10600 10606 10608 10613 10615 10616 10616 10617 10616 10615 10614 10612
10311 10309 10306 10304 10303 10304 10307 10313 10309 10316 10323 10334 10340 10352 10363 10375 10391 10405 10432 10451 10460 10488 10510 10526 10539 10548 10560 10568 10574 10581 10587 10593 10598 10603 10605 10608 10611 10612 10611 10611 10610 10609 10608 10609
10312 10308 10306 10304 10303 10304 10305 10310 10311 10315 10327 10338 10347 10357 10371 10391 10411 10429 10447 10460 10480 10495 10518 10533 10543 10550 10560 10566 10574 10581 10586 10592 10596 10600 10603 10606 10608 10607 10606 10605 10604 10603 10603 10605
10312 10309 10307 10305 10303 10305 10307 10310 10314 10319 10329 10338 10351 10364 10382 10403 10420 10433 10450 10469 10492 10503 10522 10540 10549 10554 10561 10569 10576 10581 10587 10591 10594 10598 10601 10604 10605 10603 10601 10600 10599 10600 10602 10604
10313 10310 10307 10305 10304 10306 10308 10312 10317 10324 10334 10345 10357 10370 10392 10407 10422 10442 10459 10477 10495 10511 10528 10542 10552 10558 10564 10572 10577 10582 10586 10589 10593 10597 10600 10601 10600 10598 10598 10596 10597 10601 10603 10605
10313 10310 10308 10307 10307 10309 10312 10316 10323 10330 10339 10351 10360 10378 10396 10416 10435 10449 10466 10483 10500 10521 10537 10549 10554 10561 10567 10572 10578 10582 10585 10588 10593 10596 10598 10598 10596 10596 10595 10596 10599 10601 10603 10606
10313 10312 10310 10309 10311 10313 10316 10322 10328 10336 10347 10366 10374 10389 10413 10431 10447 10461 10478 10492 10508 10528 10545 10553 10560 10564 10568 10572 10577 10582 10585 10589 10593 10595 10595 10594 10593 10593 10593 10595 10599 10600 10601 10605
10314 10312 10311 10313 10315 10318 10322 10328 10335 10346 10360 10375 10389 10408 10426 10439 10454 10471 10485 10504 10517 10530 10547 10559 10564 10567 10569 10572 10576 10581 10585 10588 10591 10592 10591 10591 10591 10591 10591 10593 10594 10595 10599 10602